Location: Bright Sky Observatory
(40.7821°N, 74.2425°W)
Time: 17:09:38
(UTC-04:00)

Amateur Radio Satellites - All Passes

Search period start: 01 July 2015 16:39
Search period end: 02 July 2015 16:39
Location: Bright Sky Observatory, 40.7821°N, 74.2425°W

Satellite Date Start Highest point End Downlink Frequencies (MHz)
Time Altitude Azimuth
ISS 01 Jul 16:57:13 17:00:02 27° 225° (SW) 17:02:50 145.825
STARS 01 Jul 17:23:49 17:27:12 22° 293° (WNW) 17:30:28 437.465
SO-50 01 Jul 17:25:13 17:29:32 38° 116° (ESE) 17:34:02 436.795
AIST 2 01 Jul 17:29:26 17:32:54 24° 47° (NE) 17:36:22 435.215
CUTE-I 01 Jul 17:30:51 17:35:19 28° 67° (ENE) 17:39:54 437.470
O/OREOS (USA 219) 01 Jul 17:40:18 17:44:27 35° 61° (ENE) 17:48:39 437.305
MOZHAYETS 4 01 Jul 17:51:42 17:56:19 65° 285° (WNW) 18:00:55
PCSat 01 Jul 17:53:35 17:58:27 33° 309° (NW) 18:03:18 145.827
AO-7 01 Jul 17:56:26 18:02:05 18° 271° (W) 18:07:17 29.400- 29.500
Cubesat XI-IV 01 Jul 18:03:08 18:08:20 55° 72° (ENE) 18:13:37 437.490
BEESAT 3 01 Jul 18:03:50 18:07:26 30° 245° (WSW) 18:10:56 437.485
CUBESAT XI-V 01 Jul 18:10:09 18:13:03 17° 90° (E) 18:16:07 437.345
BEESAT 2 01 Jul 18:11:12 18:14:53 33° 245° (WSW) 18:18:29 435.950
Cosmos 2491 01 Jul 18:12:59 18:19:05 19° 300° (WNW) 18:24:44 435.465 / 435.565
Cosmos 2504 01 Jul 18:28:34 18:35:57 52° 268° (W) 18:43:48 435.465 / 435.565
BRITE-PL 01 Jul 18:28:55 18:30:45 12° 63° (ENE) 18:32:50 437.365/2234.400
SO-50 01 Jul 19:06:00 19:10:11 29° 314° (NW) 19:14:26 436.795
AIST 2 01 Jul 19:07:43 19:11:33 34° 245° (WSW) 19:15:17 435.215
CUTE-I 01 Jul 19:10:18 19:15:16 38° 263° (W) 19:20:14 437.470
O/OREOS (USA 219) 01 Jul 19:20:11 19:23:41 22° 257° (WSW) 19:27:06 437.305
DOVE 4 01 Jul 19:21:15 19:23:17 13° 65° (ENE) 19:25:30 437.250
STRAND 1 01 Jul 19:21:56 19:26:27 31° 95° (E) 19:31:01 437.568
CUTE 1.7 + AOD 2 01 Jul 19:33:03 19:34:36 12° 65° (ENE) 19:36:21 437.475
CANX-2 01 Jul 19:35:14 19:37:23 14° 66° (ENE) 19:39:44 2200.000
Cubesat XI-IV 01 Jul 19:45:03 19:48:52 19° 269° (W) 19:52:29 437.490
CUBESAT XI-V 01 Jul 19:46:18 19:50:50 49° 287° (WNW) 19:55:19 437.345
PRISM 01 Jul 19:48:23 19:52:31 54° 100° (E) 19:56:37 437.425
HO-68 01 Jul 19:50:38 19:57:07 40° 65° (ENE) 20:03:42 435.675
GOMX 1 01 Jul 19:55:47 20:00:45 45° 73° (ENE) 20:05:29 467.674
CUSAT 1 01 Jul 19:56:27 19:59:07 48° 263° (W) 20:01:37 437.405
BRITE-PL 01 Jul 20:03:04 20:08:40 85° 77° (ENE) 20:13:58 437.365/2234.400
SEEDS 01 Jul 20:24:08 20:27:55 35° 71° (ENE) 20:31:45 437.485
GONETS M04 01 Jul 20:28:46 20:37:18 56° 76° (ENE) 20:45:48
CINEMA 3 01 Jul 20:28:56 20:32:43 27° 70° (ENE) 20:36:27 145.822/145.860
Oscar 11 01 Jul 20:36:12 20:38:43 16° 66° (ENE) 20:41:24 145.826/435.025
AUBIESAT-1 01 Jul 20:36:17 20:37:47 12° 96° (E) 20:39:34 437.475
DANDE 01 Jul 20:38:24 20:40:40 20° 269° (W) 20:42:42 436.750
AAUSAT CUBESAT 2 01 Jul 20:43:21 20:47:10 38° 72° (ENE) 20:51:03 437.432
DOVE 4 01 Jul 20:55:37 21:00:36 74° 259° (WSW) 21:05:20 437.250
FUNcube-1 01 Jul 20:57:56 21:00:15 15° 67° (ENE) 21:02:43 145.935
Cosmos 2499 01 Jul 20:58:11 21:02:58 18° 63° (ENE) 21:08:22 435.465 / 435.565
UWE-3 01 Jul 21:00:46 21:03:58 21° 69° (ENE) 21:07:13 435.000/436.395/437.385
STRAND 1 01 Jul 21:01:06 21:05:38 31° 292° (WNW) 21:10:05 437.568
M-CUBED/EXP-1 PRIME 01 Jul 21:05:36 21:09:15 29° 102° (ESE) 21:13:10 437.505
CUTE 1.7 + AOD 2 01 Jul 21:05:54 21:10:03 61° 260° (W) 21:14:14 437.475
COMPASS 1 01 Jul 21:06:15 21:10:24 85° 77° (ENE) 21:14:35 437.405
CANX-2 01 Jul 21:08:51 21:12:56 50° 261° (W) 21:17:03 2200.000
DELFI C3 01 Jul 21:21:18 21:24:50 31° 71° (ENE) 21:28:25 145.870
PRISM 01 Jul 21:25:21 21:27:33 14° 295° (WNW) 21:29:32 437.425
GOMX 1 01 Jul 21:35:02 21:39:03 21° 268° (W) 21:42:47 467.674
CUBEBUG 2 01 Jul 21:38:08 21:42:28 71° 76° (ENE) 21:46:42 437.445
HO-68 01 Jul 21:38:12 21:44:51 40° 263° (W) 21:51:27 435.675
DX 1 01 Jul 21:42:27 21:45:32 19° 66° (ENE) 21:48:43 434.975-435.025
BRITE-PL 01 Jul 21:45:32 21:47:48 12° 273° (W) 21:49:40 437.365/2234.400
50 SAT 01 Jul 21:48:52 21:49:45 11° 65° (ENE) 21:50:50 437.505
ZACube-1 01 Jul 21:54:25 21:58:37 65° 75° (ENE) 22:02:46 437.345
SEEDS 01 Jul 22:00:49 22:03:50 19° 268° (W) 22:06:45 437.485
CINEMA 3 01 Jul 22:05:53 22:09:53 28° 265° (W) 22:13:41 145.822/145.860
AISAT 01 Jul 22:06:42 22:09:53 20° 67° (ENE) 22:13:12 437.250
UKube-1 01 Jul 22:07:23 22:11:12 32° 70° (ENE) 22:15:06 .
AUBIESAT-1 01 Jul 22:08:45 22:12:51 63° 289° (WNW) 22:17:13 437.475
Oscar 11 01 Jul 22:10:25 22:14:34 47° 261° (W) 22:18:44 145.826/435.025
AAUSAT CUBESAT 2 01 Jul 22:20:15 22:22:58 17° 269° (W) 22:25:34 437.432
GONETS M04 01 Jul 22:26:23 22:33:44 31° 275° (W) 22:40:51
ESTCUBE 1 01 Jul 22:27:12 22:30:30 21° 67° (ENE) 22:33:55 437.505/2401.250
FUNcube-1 01 Jul 22:32:10 22:36:16 47° 261° (W) 22:40:19 145.935
CUBEBUG 1 01 Jul 22:34:34 22:37:48 21° 67° (ENE) 22:41:08 437.445
UWE-3 01 Jul 22:36:29 22:40:21 32° 264° (W) 22:44:08 435.000/436.395/437.385
HUMSAT D 01 Jul 22:39:09 22:43:16 89° 78° (ENE) 22:47:23 437.325/437.525
M-CUBED/EXP-1 PRIME 01 Jul 22:40:32 22:43:59 26° 295° (WNW) 22:47:34 437.505
Cosmos 2499 01 Jul 22:49:26 22:57:13 89° 263° (W) 23:05:38 435.465 / 435.565
UNISAT 6 01 Jul 22:49:31 22:53:04 25° 94° (E) 22:56:46 437.425
VELOX 1 01 Jul 22:55:39 23:00:03 62° 74° (ENE) 23:04:30 145.980
NANOSAT C BR1 01 Jul 22:56:00 22:56:38 10° 88° (E) 22:57:34 145.865
DELFI C3 01 Jul 22:57:04 23:00:01 19° 268° (W) 23:02:51 145.870
DUCHIFAT 1 01 Jul 23:03:03 23:04:49 13° 89° (E) 23:06:48 145.980
POLYITAN 1 01 Jul 23:03:46 23:05:52 14° 90° (E) 23:08:11 437.675
DX 1 01 Jul 23:17:24 23:21:32 39° 262° (W) 23:25:39 434.975-435.025
50 SAT 01 Jul 23:20:11 23:23:57 56° 260° (W) 23:27:44 437.505
QB50P2 01 Jul 23:32:44 23:36:26 30° 96° (E) 23:40:11 145.880/145.840
BUGSAT 1 01 Jul 23:33:08 23:35:53 18° 92° (E) 23:38:44 437.445
ANTELSAT 01 Jul 23:33:22 23:37:44 76° 101° (E) 23:42:12 437.575/2403.000
POPSAT HIP 1 01 Jul 23:34:17 23:37:59 30° 96° (E) 23:41:42 437.405
ZACube-1 01 Jul 23:35:04 23:35:29 10° 272° (W) 23:35:36 437.345
AISAT 01 Jul 23:42:00 23:46:13 39° 262° (W) 23:50:26 437.250
UKube-1 01 Jul 23:43:56 23:47:24 22° 266° (W) 23:50:47 .
TIGRISAT 01 Jul 23:47:11 23:51:32 79° 283° (WNW) 23:55:57 435.000
SPROUT 01 Jul 23:47:46 23:51:40 34° 71° (ENE) 23:55:36 437.525
ESTCUBE 1 02 Jul 00:02:52 00:07:08 39° 263° (W) 00:11:23 437.505/2401.250
CUBEBUG 1 02 Jul 00:09:47 00:13:56 37° 263° (W) 00:18:04 437.445
QB50P1 02 Jul 00:13:18 00:17:32 87° 96° (E) 00:21:44 145.935-145.965
UNISAT 6 02 Jul 00:26:04 00:29:52 29° 290° (WNW) 00:33:39 437.425
NANOSAT C BR1 02 Jul 00:28:49 00:32:59 63° 285° (WNW) 00:37:07 145.865
VELOX 1 02 Jul 00:35:13 00:37:06 12° 271° (W) 00:38:43 145.980
DUCHIFAT 1 02 Jul 00:36:55 00:41:00 51° 287° (WNW) 00:45:03 145.980
POLYITAN 1 02 Jul 00:38:03 00:42:06 47° 287° (WNW) 00:46:09 437.675
TISAT 1 02 Jul 00:41:11 00:45:26 88° 257° (WSW) 00:49:42 437.305
Cosmos 2499 02 Jul 00:44:58 00:49:35 16° 278° (W) 00:53:51 435.465 / 435.565
PCSat 02 Jul 00:57:59 01:02:44 30° 50° (NE) 01:07:31 145.827
BUGSAT 1 02 Jul 01:07:48 01:11:31 34° 289° (WNW) 01:15:08 437.445
QB50P2 02 Jul 01:08:52 01:12:12 22° 292° (WNW) 01:15:27 145.880/145.840
POPSAT HIP 1 02 Jul 01:10:24 01:13:43 22° 292° (WNW) 01:16:56 437.405
ANTELSAT 02 Jul 01:12:57 01:14:01 11° 297° (WNW) 01:14:51 437.575/2403.000
BEESAT 02 Jul 01:18:21 01:22:44 38° 70° (ENE) 01:27:11 436.000
SPROUT 02 Jul 01:24:34 01:27:51 20° 267° (W) 01:31:02 437.525
SWISSCUBE 02 Jul 01:33:08 01:37:49 59° 73° (ENE) 01:42:34 437.505
ITUPSAT 1 02 Jul 01:36:57 01:41:38 58° 73° (ENE) 01:46:22 437.325
KKS-1 02 Jul 01:46:28 01:48:19 13° 64° (ENE) 01:50:23 437.445
Oscar 19 02 Jul 01:49:03 01:53:35 32° 96° (E) 01:58:10 437.125/150
SO-50 02 Jul 01:56:45 02:01:17 35° 48° (NE) 02:05:47 436.795
RS-15 02 Jul 02:22:24 02:32:28 47° 111° (ESE) 02:42:55 29.354- 29.394
Cosmos 2491 02 Jul 02:22:54 02:31:10 45° 73° (ENE) 02:39:28 435.465 / 435.565
AIST 1 02 Jul 02:33:35 02:36:51 21° 72° (ENE) 02:40:12
PCSat 02 Jul 02:41:13 02:46:16 40° 248° (WSW) 02:51:16 145.827
STARS 02 Jul 02:43:41 02:47:29 30° 70° (ENE) 02:51:22 437.465
BEESAT 02 Jul 02:56:58 03:00:43 22° 267° (W) 03:04:23 436.000
YUBILEINY 02 Jul 02:58:33 03:05:48 32° 85° (E) 03:13:16 435.215
Gurwin Techsat 1B 02 Jul 03:09:46 03:14:59 54° 100° (E) 03:20:12 435.225
SWISSCUBE 02 Jul 03:13:27 03:16:09 14° 271° (W) 03:18:37 437.505
ITUPSAT 1 02 Jul 03:17:13 03:19:59 15° 270° (W) 03:22:32 437.325
MOZHAYETS 4 02 Jul 03:19:14 03:20:59 12° 63° (ENE) 03:22:57
KKS-1 02 Jul 03:20:02 03:24:29 66° 259° (W) 03:28:56 437.445
Oscar 19 02 Jul 03:28:26 03:32:54 30° 292° (WNW) 03:37:18 437.125/150
ITAMSAT 1 02 Jul 03:32:52 03:38:08 85° 103° (ESE) 03:43:22 435.822/435.867
SO-50 02 Jul 03:37:24 03:41:48 31° 246° (WSW) 03:46:01 436.795
JAS-2 02 Jul 03:43:35 03:49:30 36° 96° (E) 03:56:07 435.910
AO-7 02 Jul 04:02:22 04:09:22 30° 94° (E) 04:16:32 29.400- 29.500
AIST 1 02 Jul 04:10:42 04:14:37 32° 269° (W) 04:18:25
HORYU 2 02 Jul 04:12:16 04:16:10 30° 96° (E) 04:20:07 437.375
Cosmos 2491 02 Jul 04:20:02 04:27:57 39° 273° (W) 04:35:43 435.465 / 435.565
STARS 02 Jul 04:20:20 04:23:57 24° 266° (W) 04:27:31 437.465
RS-15 02 Jul 04:34:09 04:44:48 53° 314° (NW) 04:55:47 29.354- 29.394
Gurwin Techsat 1B 02 Jul 04:50:44 04:54:36 20° 296° (WNW) 04:58:19 435.225
MOZHAYETS 4 02 Jul 04:53:07 04:57:40 71° 258° (WSW) 05:02:16
YUBILEINY 02 Jul 04:53:48 05:02:17 54° 284° (WNW) 05:10:45 435.215
CUBESAT XI-V 02 Jul 05:13:41 05:16:36 17° 65° (ENE) 05:19:42 437.345
ITAMSAT 1 02 Jul 05:14:33 05:17:00 13° 300° (WNW) 05:19:12 435.822/435.867
Cosmos 2504 02 Jul 05:15:53 05:21:06 23° 84° (E) 05:26:32 435.465 / 435.565
JAS-2 02 Jul 05:28:36 05:34:37 42° 290° (WNW) 05:41:15 435.910
HORYU 2 02 Jul 05:49:01 05:52:43 25° 292° (WNW) 05:56:20 437.375
CUTE-I 02 Jul 05:51:06 05:51:32 10° 86° (E) 05:52:23 437.470
AO-7 02 Jul 05:54:28 06:02:42 61° 293° (WNW) 06:10:49 29.400- 29.500
Cubesat XI-IV 02 Jul 06:21:24 06:25:28 22° 92° (E) 06:29:40 437.490
STRAND 1 02 Jul 06:37:24 06:42:15 44° 71° (ENE) 06:47:09 437.568
PRISM 02 Jul 06:38:06 06:41:57 38° 71° (ENE) 06:45:52 437.425
CUBESAT XI-V 02 Jul 06:49:03 06:53:39 52° 261° (W) 06:58:17 437.345
RS-15 02 Jul 06:52:22 07:00:45 23° 345° (NNW) 07:09:13 29.354- 29.394
Cosmos 2504 02 Jul 07:06:51 07:14:00 59° 282° (WNW) 07:21:04 435.465 / 435.565
CUSAT 1 02 Jul 07:19:33 07:24:06 20° 93° (E) 07:28:12 437.405
AUBIESAT-1 02 Jul 07:25:05 07:26:00 11° 60° (ENE) 07:27:06 437.475
CUTE-I 02 Jul 07:27:06 07:32:31 88° 104° (ESE) 07:37:53 437.470
GONETS M04 02 Jul 07:40:52 07:42:14 11° 75° (ENE) 07:44:24
AO-7 02 Jul 07:49:51 07:53:58 14° 313° (NW) 07:57:39 29.400- 29.500
O/OREOS (USA 219) 02 Jul 07:52:14 07:56:25 42° 107° (ESE) 08:00:40 437.305
M-CUBED/EXP-1 PRIME 02 Jul 07:54:36 07:57:29 29° 66° (ENE) 08:00:28 437.505
BEESAT 3 02 Jul 07:55:30 07:59:24 47° 118° (ESE) 08:03:23 437.485
Cubesat XI-IV 02 Jul 08:00:42 08:05:51 46° 290° (WNW) 08:10:56 437.490
GOMX 1 02 Jul 08:01:29 08:01:36 10° 87° (E) 08:02:00 467.674
DANDE 02 Jul 08:02:20 08:09:08 38° 95° (E) 08:14:43 436.750
ISS 02 Jul 08:02:25 08:02:38 10° 129° (SE) 08:02:58 145.825
BEESAT 2 02 Jul 08:03:53 08:07:48 45° 117° (ESE) 08:11:46 435.950
BRITE-PL 02 Jul 08:09:36 08:13:06 24° 93° (E) 08:16:32 437.365/2234.400
PRISM 02 Jul 08:14:45 08:17:35 17° 268° (W) 08:20:19 437.425
STRAND 1 02 Jul 08:17:42 08:21:41 22° 268° (W) 08:25:34 437.568
VERMONT LUNAR 02 Jul 08:38:43 08:41:17 23° 154° (SSE) 08:43:53 437.305
COMPASS 1 02 Jul 08:51:20 08:53:31 14° 90° (E) 08:55:53 437.405
CUTE 1.7 + AOD 2 02 Jul 08:51:48 08:55:10 23° 93° (E) 08:58:37 437.475
CANX-2 02 Jul 08:54:33 08:58:11 27° 95° (E) 09:01:52 2200.000
DOVE 4 02 Jul 08:55:37 08:59:08 26° 95° (E) 09:02:41 437.250
AUBIESAT-1 02 Jul 08:57:17 09:00:26 41° 256° (WSW) 09:03:40 437.475
CUSAT 1 02 Jul 08:59:49 09:06:38 59° 281° (W) 09:11:52 437.405
AIST 2 02 Jul 09:04:42 09:08:48 51° 118° (ESE) 09:12:57 435.215
HO-68 02 Jul 09:05:32 09:12:12 41° 98° (E) 09:18:55 435.675
CUTE-I 02 Jul 09:09:27 09:11:54 13° 300° (WNW) 09:14:07 437.470
RS-15 02 Jul 09:09:46 09:18:34 25° 20° (NNE) 09:27:54 29.354- 29.394
GONETS M04 02 Jul 09:28:56 09:37:35 66° 93° (E) 09:46:15
M-CUBED/EXP-1 PRIME 02 Jul 09:30:45 09:32:31 13° 264° (W) 09:34:10 437.505
CUBEBUG 2 02 Jul 09:30:46 09:32:54 14° 90° (E) 09:35:14 437.445
O/OREOS (USA 219) 02 Jul 09:32:48 09:36:05 19° 305° (NW) 09:39:17 437.305
BEESAT 3 02 Jul 09:34:38 09:37:37 19° 316° (NW) 09:40:34 437.485
ISS 02 Jul 09:35:22 09:38:36 85° 321° (NW) 09:41:52 145.825
GOMX 1 02 Jul 09:36:09 09:40:21 61° 285° (WNW) 09:44:26 467.674
Cosmos 2499 02 Jul 09:40:50 09:41:14 10° 78° (ENE) 09:42:15 435.465 / 435.565
BEESAT 2 02 Jul 09:43:01 09:46:06 20° 315° (NW) 09:49:08 435.950
SEEDS 02 Jul 09:43:44 09:48:00 72° 102° (ESE) 09:52:15 437.485
ZACube-1 02 Jul 09:45:02 09:46:35 12° 89° (E) 09:48:25 437.345
DANDE 02 Jul 09:45:24 09:52:19 38° 285° (WNW) 09:57:47 436.750
BRITE-PL 02 Jul 09:47:56 09:51:42 27° 291° (WNW) 09:55:14 437.365/2234.400
UNISAT 6 02 Jul 09:48:51 09:52:05 22° 68° (ENE) 09:55:24 437.425
PHONESAT 2.4 02 Jul 09:55:59 09:58:37 21° 152° (SSE) 10:01:17 2401.200-2431.200
DUCHIFAT 1 02 Jul 09:56:54 09:57:29 10° 63° (ENE) 09:58:19 145.980
POLYITAN 1 02 Jul 09:57:52 09:59:09 11° 64° (ENE) 10:00:40 437.675
Oscar 11 02 Jul 09:58:02 10:01:52 30° 96° (E) 10:05:44 145.826/435.025
CINEMA 3 02 Jul 10:00:07 10:04:15 65° 101° (E) 10:08:26 145.822/145.860
AAUSAT CUBESAT 2 02 Jul 10:01:28 10:05:41 78° 102° (ESE) 10:09:54 437.432
VERMONT LUNAR 02 Jul 10:14:50 10:17:58 72° 170° (S) 10:21:07 437.305
FUNcube-1 02 Jul 10:20:38 10:24:20 30° 96° (E) 10:28:07 145.935
BUGSAT 1 02 Jul 10:23:46 10:25:55 14° 66° (ENE) 10:28:14 437.445
HUMSAT D 02 Jul 10:24:41 10:26:53 14° 90° (E) 10:29:17 437.325/437.525
COMPASS 1 02 Jul 10:25:26 10:29:30 47° 287° (WNW) 10:33:34 437.405
QB50P2 02 Jul 10:25:44 10:29:04 23° 69° (ENE) 10:32:28 145.880/145.840
UWE-3 02 Jul 10:25:52 10:29:54 46° 99° (E) 10:34:02 435.000/436.395/437.385
POPSAT HIP 1 02 Jul 10:27:08 10:30:28 23° 69° (ENE) 10:33:52 437.405
CUTE 1.7 + AOD 2 02 Jul 10:27:20 10:31:07 30° 289° (WNW) 10:34:50 437.475
CANX-2 02 Jul 10:30:28 10:34:02 26° 291° (WNW) 10:37:32 2200.000
ANTELSAT 02 Jul 10:32:09 10:36:24 64° 76° (ENE) 10:40:39 437.575/2403.000
DOVE 4 02 Jul 10:33:29 10:36:52 23° 291° (WNW) 10:40:08 437.250
DELFI C3 02 Jul 10:34:58 10:38:59 55° 100° (E) 10:42:58 145.870
AIST 2 02 Jul 10:44:33 10:47:41 19° 316° (NW) 10:50:45 435.215
TIGRISAT 02 Jul 10:45:38 10:49:57 88° 77° (ENE) 10:54:14 435.000
VELOX 1 02 Jul 10:48:36 10:50:05 12° 88° (E) 10:51:50 145.980
HO-68 02 Jul 10:53:23 10:59:54 39° 295° (WNW) 11:06:20 435.675
50 SAT 02 Jul 10:57:05 10:59:27 16° 92° (E) 11:01:58 437.505
QB50P1 02 Jul 11:05:28 11:09:40 62° 75° (ENE) 11:13:52 145.935-145.965
CUBEBUG 2 02 Jul 11:05:53 11:09:54 47° 286° (WNW) 11:13:59 437.445
DX 1 02 Jul 11:05:54 11:09:51 34° 97° (E) 11:13:49 434.975-435.025
ISS 02 Jul 11:13:03 11:15:24 18° 342° (NNW) 11:17:45 145.825
ZACube-1 02 Jul 11:19:14 11:23:21 55° 286° (WNW) 11:27:30 437.345
NANOSAT C BR1 02 Jul 11:20:39 11:24:54 89° 257° (WSW) 11:29:10 145.865
SEEDS 02 Jul 11:22:11 11:23:16 11° 296° (WNW) 11:24:08 437.485
RS-15 02 Jul 11:22:41 11:34:12 61° 50° (NE) 11:46:13 29.354- 29.394
UNISAT 6 02 Jul 11:24:50 11:28:44 32° 264° (W) 11:32:34 437.425
Cosmos 2499 02 Jul 11:26:11 11:33:14 76° 95° (E) 11:40:21 435.465 / 435.565
GONETS M04 02 Jul 11:27:52 11:35:13 27° 294° (WNW) 11:42:16
DUCHIFAT 1 02 Jul 11:28:32 11:32:46 74° 259° (W) 11:37:00 145.980
POLYITAN 1 02 Jul 11:30:20 11:34:34 67° 259° (WSW) 11:38:48 437.675
UKube-1 02 Jul 11:30:29 11:34:47 60° 101° (E) 11:39:03 .
AISAT 02 Jul 11:32:46 11:36:53 38° 98° (E) 11:41:00 437.250
PHONESAT 2.4 02 Jul 11:32:53 11:36:19 65° 167° (SSE) 11:39:46 2401.200-2431.200
Oscar 11 02 Jul 11:34:25 11:37:55 24° 291° (WNW) 11:41:20 145.826/435.025
CINEMA 3 02 Jul 11:39:50 11:41:01 11° 296° (WNW) 11:41:58 145.822/145.860
VERMONT LUNAR 02 Jul 11:51:44 11:54:53 81° 187° (S) 11:58:04 437.305
ESTCUBE 1 02 Jul 11:55:32 11:59:53 43° 98° (E) 12:04:12 437.505/2401.250
BUGSAT 1 02 Jul 11:56:51 12:01:00 52° 260° (W) 12:05:08 437.445
FUNcube-1 02 Jul 11:57:14 12:00:33 22° 291° (WNW) 12:03:48 145.935
CUBEBUG 1 02 Jul 11:58:43 12:02:48 39° 97° (E) 12:06:53 437.445
HUMSAT D 02 Jul 11:58:56 12:02:55 45° 287° (WNW) 12:06:53 437.325/437.525
QB50P2 02 Jul 12:01:04 12:04:51 30° 264° (W) 12:08:34 145.880/145.840
POPSAT HIP 1 02 Jul 12:02:27 12:06:13 29° 264° (W) 12:09:56 437.405
UWE-3 02 Jul 12:03:36 12:06:08 15° 293° (WNW) 12:08:32 435.000/436.395/437.385
DELFI C3 02 Jul 12:11:50 12:13:38 12° 295° (WNW) 12:15:16 145.870
ANTELSAT 02 Jul 12:12:45 12:13:43 10° 272° (W) 12:14:23 437.575/2403.000
VELOX 1 02 Jul 12:22:46 12:27:08 62° 286° (WNW) 12:31:28 145.980
TISAT 1 02 Jul 12:27:24 12:29:37 14° 90° (E) 12:32:01 437.305
50 SAT 02 Jul 12:30:39 12:34:15 35° 288° (WNW) 12:37:49 437.505
DX 1 02 Jul 12:42:34 12:45:55 21° 293° (WNW) 12:49:09 434.975-435.025
QB50P1 02 Jul 12:44:46 12:46:01 11° 272° (W) 12:46:59 145.935-145.965
ISS 02 Jul 12:51:20 12:52:46 12° 2° (N) 12:54:13 145.825
Gurwin Techsat 1B 02 Jul 12:55:11 12:56:37 11° 59° (ENE) 12:58:21 435.225
Oscar 19 02 Jul 13:05:33 13:10:24 45° 71° (ENE) 13:15:19 437.125/150
UKube-1 02 Jul 13:08:20 13:10:28 13° 296° (WNW) 13:12:24 .
YUBILEINY 02 Jul 13:09:27 13:13:52 15° 57° (ENE) 13:18:51 435.215
AISAT 02 Jul 13:09:58 13:13:14 20° 293° (WNW) 13:16:22 437.250
SPROUT 02 Jul 13:10:07 13:14:23 71° 101° (ESE) 13:18:38 437.525
PHONESAT 2.4 02 Jul 13:10:51 13:14:19 86° 189° (S) 13:17:49 2401.200-2431.200
ITAMSAT 1 02 Jul 13:13:43 13:16:48 17° 63° (ENE) 13:20:06 435.822/435.867
Cosmos 2499 02 Jul 13:22:36 13:27:22 18° 297° (WNW) 13:31:50 435.465 / 435.565
VERMONT LUNAR 02 Jul 13:28:47 13:31:39 31° 203° (SSW) 13:34:32 437.305
ESTCUBE 1 02 Jul 13:33:14 13:36:27 19° 294° (WNW) 13:39:32 437.505/2401.250
SWISSCUBE 02 Jul 13:35:05 13:37:50 16° 90° (E) 13:40:47 437.505
RS-15 02 Jul 13:35:35 13:46:27 43° 250° (WSW) 13:57:24 29.354- 29.394
CUBEBUG 1 02 Jul 13:35:46 13:38:55 19° 293° (WNW) 13:41:56 437.445
ITUPSAT 1 02 Jul 13:39:12 13:41:55 15° 90° (E) 13:44:50 437.325
JAS-2 02 Jul 14:00:51 14:02:01 11° 58° (ENE) 14:03:30 435.910
TISAT 1 02 Jul 14:01:40 14:05:41 45° 287° (WNW) 14:09:40 437.305
ISS 02 Jul 14:27:24 14:30:04 23° 22° (NNE) 14:32:44 145.825
Gurwin Techsat 1B 02 Jul 14:30:33 14:35:51 83° 77° (ENE) 14:41:13 435.225
Oscar 19 02 Jul 14:46:06 14:50:02 21° 268° (W) 14:53:49 437.125/150
SPROUT 02 Jul 14:48:41 14:49:57 11° 297° (WNW) 14:51:00 437.525
PHONESAT 2.4 02 Jul 14:48:55 14:52:14 41° 200° (SSW) 14:55:31 2401.200-2431.200
ITAMSAT 1 02 Jul 14:50:38 14:55:49 66° 259° (W) 15:01:03 435.822/435.867
BEESAT 02 Jul 14:56:02 15:00:52 85° 283° (WNW) 15:05:40 436.000
AO-7 02 Jul 15:00:57 15:08:31 42° 62° (ENE) 15:16:14 29.400- 29.500
YUBILEINY 02 Jul 15:03:47 15:12:35 76° 81° (E) 15:21:22 435.215
AIST 1 02 Jul 15:04:27 15:06:13 13° 86° (E) 15:08:14
HORYU 2 02 Jul 15:10:30 15:14:11 27° 69° (ENE) 15:17:58 437.375
SWISSCUBE 02 Jul 15:11:22 15:16:06 55° 287° (WNW) 15:20:46 437.505
KKS-1 02 Jul 15:11:56 15:15:28 24° 94° (E) 15:19:05 437.445
ITUPSAT 1 02 Jul 15:15:30 15:20:14 56° 287° (WNW) 15:24:55 437.325
Cosmos 2491 02 Jul 15:23:22 15:31:46 53° 90° (E) 15:40:15 435.465 / 435.565
PCSat 02 Jul 15:39:56 15:44:20 27° 109° (ESE) 15:48:52 145.827
JAS-2 02 Jul 15:41:12 15:46:22 89° 86° (E) 15:51:44 435.910
ISS 02 Jul 16:03:29 16:06:40 57° 220° (SW) 16:09:51 145.825
STARS 02 Jul 16:09:12 16:13:33 61° 101° (E) 16:17:52 437.465
BEESAT 3 02 Jul 16:14:26 16:17:58 28° 49° (NE) 16:21:28 437.485
Gurwin Techsat 1B 02 Jul 16:14:37 16:16:37 12° 273° (W) 16:18:16 435.225
SO-50 02 Jul 16:14:54 16:15:27 10° 107° (ESE) 16:16:19 436.795
BEESAT 2 02 Jul 16:23:22 16:26:54 27° 48° (NE) 16:30:25 435.950
PHONESAT 2.4 02 Jul 16:28:56 16:29:44 11° 214° (SW) 16:30:25 2401.200-2431.200
